Location: Nebula Knoll Observatory
(43.6666°N, 71.0000°W)
Time: 16:43:50
(UTC-04:00)

Cosmos 1782 - Visible Passes

Search period start: 28 August 2016 00:00
Search period end: 07 September 2016 00:00
Orbit: 541 x 554 km, 82.5° (Epoch: 28 August)

Date Brightness Start Highest point End Pass type
(mag) Time Alt. Az. Time Alt. Az. Time Alt. Az.
28 Aug 4.4 05:14:56 10° SSE 05:18:42 39° E 05:22:29 10° NNE visible
29 Aug 4.2 05:09:52 10° SSE 05:13:41 42° E 05:17:32 10° NNE visible
30 Aug 4.0 05:04:48 10° SSE 05:08:39 46° E 05:12:33 10° NNE visible
31 Aug 3.8 04:59:44 10° S 05:03:38 49° E 05:07:34 10° NNE visible
01 Sep 3.6 04:54:41 10° S 04:58:37 54° E 05:02:35 10° NNE visible
02 Sep 3.4 04:49:38 10° S 04:53:36 58° E 04:57:36 10° NNE visible
03 Sep 3.3 04:44:36 10° S 04:48:35 63° E 04:52:36 10° NNE visible
04 Sep 3.1 04:39:33 10° S 04:43:34 68° E 04:47:37 10° NNE visible
05 Sep 3.0 04:35:10 14° S 04:38:34 74° E 04:42:37 10° NNE visible
06 Sep 2.9 04:30:58 22° S 04:33:33 80° E 04:37:37 10° N visible
